YZ-1 R/B

基本信息
目录编号:
44866
目录名称:
YZ-1 R/B
国际标识:
2019-090C
轨道中心:
EARTH
物体状态:
在轨
发射日期:
2019-12-16 UTC
国别:
中国 (CN)
轨道信息
数据来源: 国际轨道数据
星历时间: 2026-07-13T10:28:44+0800
半长轴: 28720.845km
偏心率: 0.0071569
轨道倾角: 56.406°
近地点辐角: 41.207°
升交点赤经: 68.749°
平近点角: 319.401°
近地点: 22137.155km
远地点: 22548.261km
周期: 807.338分钟
每日圈数: 1.783639
详细信息
发射场:
XSC
轨道高度:
MEO
数据来源:
AOE Integration Group
参考系:
TEME
时间系统:
UTC
历元类型:
SGP4
2D轨道图
3D轨道图
轨道高度分析图
轨道倾角分析图
轨道综合分析图
查看轨道综合分析图